User: anonymous   Login
Location: Cussy
(47.0410°N, 4.6412°E)
Time: 07:51:06
(UTC+00:00)
Language:

Sich 1 - Orbit

View from above orbital plane
View from above orbital plane
View from above satellite
View from above satellite

Ground track
Ground track

The orbit data is extracted from the following two-line orbital elements,

1 23657U 95046A   21058.88564939  .00000228  00000-0  23106-4 0  9993
2 23657  82.5243  70.5897 0020497 287.6463  72.2515 14.86251884377919
Epoch (UTC): 27 February 2021 21:15:20
Eccentricity: 0.0020497
inclination: 82.5243°
perigee height: 595 km
apogee height: 624 km
right ascension of ascending node: 70.5897°
argument of perigee: 287.6463°
revolutions per day: 14.86251884
mean anomaly at epoch: 72.2515°
orbit number at epoch: 37791

The dashed part of the orbit path shows where the satellite is in the earth's shadow,  

DLR